Kuwait City, Kuwait

7:30 AM AST on December 05, 2016 (GMT +0300)
Kuwait International | | Change Station

Elev 180 ft 29.22 °N, 47.98 °E | Updated 30 minutes ago

Light Haze
Light Haze
57 °F
Feels Like 57 °F
N
7
Wind Variable Wind from North

Today
High -- | Low -- °F
--% Chance of Precip.
Yesterday
High -- | Low -- °F
Precip. -- in
Pressure 30.18 in
Visibility 2.2 miles
Clouds
Dew Point 46 °F
Humidity 67%
Rainfall 0.00 in
Snow Depth Not available.
6:27 AM 4:49 PM
Waxing Crescent, 28% visible
METAR OKBK 050400Z 36006KT 3500 -HZ NSC 14/08 Q1022 NOSIG
Pressure 30.18 in
Visibility 2.2 miles
Clouds
Dew Point 46 °F
Humidity 67%
Rainfall 0.00 in
Snow Depth Not available.
6:27 AM 4:49 PM
Waxing Crescent, 28% visible
METAR OKBK 050400Z 36006KT 3500 -HZ NSC 14/08 Q1022 NOSIG

10-Day Weather Forecast

No radar image for this location.
×

Almanac

Astronomy

Dec. 05, 2016 Rise Set
Actual Time
Civil Twilight
Nautical Twilight
Astronomical Twilight
Moon
Length of Visible Light
Length of Day
Tomorrow will be .
, % of the Moon is Illuminated

Today's Extremes

Country Highs Country Lows

Community

WunderPhotos

Upload Photos

1,955,759 photos uploaded!

WunderBlog® & News

Nearby

Air Quality

  Air Quality AQ Index Pollutant
Not available.

Snow Depth

Station Depth Elevation

Earthquake Activity

City Distance Mag. Time & Date
Minimum magnitude displayed is 2.5.

Coastal Water Temperatures

Place Temperature

Stations

Nearby Weather Stations

Station Location Temp. Windchill Dew Point Humidity Wind Precip. Elev Updated Type